When you browse on this site, cookies collect data to enhance your experience and personalize the content and advertising you see.
Visit our Privacy Policy to learn more. By continuing to use the site, you agree to this use of cookies and data.

Stündliche Wetter Hodmezovasarhely

Heute, 27 September, Sonntag

Zeit Temperatur Niederschläge Wind Luftdruck Luftfeuchtigkeit
00:00 +11°C° 0 mm 4 m/S 743 mmHg 69%
01:00 +11°C° 0 mm 3 m/S 744 mmHg 70%
02:00 +11°C° 0 mm 3 m/S 744 mmHg 69%
03:00 +10°C° 0 mm 4 m/S 745 mmHg 68%
04:00 +10°C° 0 mm 4 m/S 745 mmHg 68%
05:00 +10°C° 0 mm 4 m/S 746 mmHg 67%
06:00 +10°C° 0 mm 3 m/S 746 mmHg 66%
07:00 +10°C° 0 mm 3 m/S 747 mmHg 65%
08:00 +12°C° 0 mm 3 m/S 748 mmHg 60%
09:00 +13°C° 0 mm 3 m/S 749 mmHg 54%
10:00 +15°C° 0 mm 2 m/S 750 mmHg 48%
11:00 +16°C° 0 mm 2 m/S 750 mmHg 45%
12:00 +17°C° 0 mm 2 m/S 750 mmHg 42%
13:00 +18°C° 0 mm 2 m/S 750 mmHg 39%
14:00 +18°C° 0 mm 3 m/S 751 mmHg 40%
15:00 +18°C° 0 mm 3 m/S 751 mmHg 41%
16:00 +18°C° 0 mm 4 m/S 751 mmHg 43%
17:00 +17°C° 0 mm 4 m/S 751 mmHg 48%
18:00 +16°C° 0 mm 3 m/S 751 mmHg 54%
19:00 +14°C° 0 mm 3 m/S 751 mmHg 59%
20:00 +14°C° 0 mm 4 m/S 751 mmHg 61%
21:00 +14°C° 0 mm 4 m/S 751 mmHg 62%
22:00 +14°C° 0 mm 5 m/S 751 mmHg 64%
23:00 +13°C° 0 mm 5 m/S 751 mmHg 64%

Morgen, 28 September, Montag

Zeit Temperatur Niederschläge Wind Luftdruck Luftfeuchtigkeit
00:00 +13°C° 0 mm 5 m/S 750 mmHg 65%
01:00 +13°C° 0 mm 5 m/S 750 mmHg 65%
02:00 +14°C° 0 mm 5 m/S 750 mmHg 62%
03:00 +14°C° 0 mm 5 m/S 749 mmHg 58%
04:00 +15°C° 0 mm 5 m/S 749 mmHg 55%
05:00 +15°C° 0.3 mm 4 m/S 749 mmHg 58%
06:00 +15°C° 0.3 mm 4 m/S 749 mmHg 62%
07:00 +14°C° 0.3 mm 4 m/S 749 mmHg 65%
08:00 +14°C° 0.2 mm 5 m/S 749 mmHg 66%
09:00 +15°C° 0.2 mm 6 m/S 750 mmHg 68%
10:00 +15°C° 0.2 mm 7 m/S 750 mmHg 69%
11:00 +16°C° 0 mm 7 m/S 750 mmHg 64%
12:00 +17°C° 0 mm 6 m/S 750 mmHg 60%
13:00 +20°C° 0 mm 6 m/S 750 mmHg 55%
14:00 +20°C° 0.2 mm 5 m/S 750 mmHg 56%
15:00 +20°C° 0.2 mm 4 m/S 750 mmHg 57%
16:00 +20°C° 0.2 mm 3 m/S 750 mmHg 57%
17:00 +19°C° 0.2 mm 3 m/S 750 mmHg 64%
18:00 +18°C° 0.2 mm 2 m/S 751 mmHg 70%
19:00 +16°C° 0.2 mm 1 m/S 751 mmHg 76%
20:00 +16°C° 0 mm 1 m/S 751 mmHg 78%
21:00 +16°C° 0 mm 1 m/S 751 mmHg 79%
22:00 +15°C° 0 mm 1 m/S 751 mmHg 80%
23:00 +15°C° 0 mm 1 m/S 751 mmHg 81%

übermorgen, 29 September, Dienstag

Zeit Temperatur Niederschläge Wind Luftdruck Luftfeuchtigkeit
00:00 +15°C° 0 mm 1 m/S 751 mmHg 82%
01:00 +14°C° 0 mm 1 m/S 751 mmHg 83%
02:00 +14°C° 0 mm 1 m/S 751 mmHg 84%
03:00 +13°C° 0 mm 0 m/S 751 mmHg 85%
04:00 +13°C° 0 mm 0 m/S 751 mmHg 86%
05:00 +14°C° 0 mm 1 m/S 751 mmHg 85%
06:00 +14°C° 0 mm 1 m/S 751 mmHg 83%
07:00 +15°C° 0 mm 2 m/S 752 mmHg 82%
08:00 +15°C° 0.1 mm 2 m/S 752 mmHg 78%
09:00 +16°C° 0.1 mm 2 m/S 752 mmHg 74%
10:00 +17°C° 0.1 mm 2 m/S 752 mmHg 69%
11:00 +18°C° 0.3 mm 2 m/S 752 mmHg 65%
12:00 +19°C° 0.3 mm 3 m/S 752 mmHg 60%
13:00 +20°C° 0.3 mm 4 m/S 752 mmHg 56%
14:00 +20°C° 0.2 mm 4 m/S 752 mmHg 56%
15:00 +20°C° 0.2 mm 4 m/S 752 mmHg 56%
16:00 +20°C° 0.2 mm 4 m/S 751 mmHg 56%
17:00 +18°C° 0 mm 4 m/S 751 mmHg 61%
18:00 +17°C° 0 mm 4 m/S 752 mmHg 67%
19:00 +15°C° 0 mm 4 m/S 752 mmHg 72%
20:00 +14°C° 0 mm 4 m/S 752 mmHg 76%
21:00 +13°C° 0 mm 4 m/S 752 mmHg 80%
22:00 +13°C° 0 mm 4 m/S 752 mmHg 83%
23:00 +12°C° 0 mm 4 m/S 752 mmHg 85%

30 September, Mittwoch

Zeit Temperatur Niederschläge Wind Luftdruck Luftfeuchtigkeit
00:00 +12°C° 0 mm 4 m/S 752 mmHg 87%
01:00 +12°C° 0 mm 4 m/S 752 mmHg 89%
02:00 +11°C° 0 mm 4 m/S 752 mmHg 89%
03:00 +11°C° 0 mm 4 m/S 751 mmHg 90%
04:00 +11°C° 0 mm 4 m/S 751 mmHg 90%
05:00 +10°C° 0 mm 5 m/S 751 mmHg 88%
06:00 +12°C° 0 mm 5 m/S 751 mmHg 85%
07:00 +12°C° 0 mm 5 m/S 751 mmHg 83%
08:00 +14°C° 0 mm 5 m/S 751 mmHg 75%
09:00 +16°C° 0 mm 6 m/S 750 mmHg 67%
10:00 +17°C° 0 mm 6 m/S 750 mmHg 59%
11:00 +19°C° 0 mm 6 m/S 750 mmHg 56%
12:00 +20°C° 0 mm 6 m/S 749 mmHg 54%
13:00 +21°C° 0 mm 6 m/S 749 mmHg 51%
14:00 +20°C° 0.1 mm 5 m/S 748 mmHg 54%
15:00 +19°C° 0.1 mm 5 m/S 748 mmHg 58%
16:00 +17°C° 0.1 mm 5 m/S 748 mmHg 61%
17:00 +16°C° 0.1 mm 5 m/S 748 mmHg 66%
18:00 +17°C° 0.1 mm 4 m/S 748 mmHg 70%
19:00 +15°C° 0.1 mm 4 m/S 747 mmHg 75%
20:00 +15°C° 0.7 mm 4 m/S 747 mmHg 78%
21:00 +14°C° 0.7 mm 5 m/S 747 mmHg 81%
22:00 +14°C° 0.7 mm 5 m/S 747 mmHg 84%
23:00 +14°C° 0.6 mm 5 m/S 746 mmHg 85%

1 Oktober, Donnerstag

Zeit Temperatur Niederschläge Wind Luftdruck Luftfeuchtigkeit
00:00 +14°C° 0.6 mm 5 m/S 746 mmHg 86%
01:00 +14°C° 0.6 mm 5 m/S 746 mmHg 87%
02:00 +14°C° 0.1 mm 4 m/S 746 mmHg 87%
03:00 +14°C° 0.1 mm 4 m/S 746 mmHg 87%
04:00 +14°C° 0.1 mm 3 m/S 746 mmHg 87%
05:00 +14°C° 0 mm 3 m/S 746 mmHg 86%
06:00 +14°C° 0 mm 3 m/S 746 mmHg 85%
07:00 +14°C° 0 mm 3 m/S 746 mmHg 84%
08:00 +14°C° 0.1 mm 3 m/S 746 mmHg 84%
09:00 +15°C° 0.1 mm 2 m/S 746 mmHg 85%
10:00 +15°C° 0.1 mm 2 m/S 746 mmHg 85%
11:00 +15°C° 0.1 mm 2 m/S 746 mmHg 85%
12:00 +15°C° 0.1 mm 2 m/S 746 mmHg 85%
13:00 +15°C° 0.1 mm 1 m/S 746 mmHg 84%
14:00 +16°C° 0 mm 1 m/S 746 mmHg 84%
15:00 +16°C° 0 mm 1 m/S 745 mmHg 83%
16:00 +16°C° 0 mm 1 m/S 745 mmHg 83%
17:00 +15°C° 0 mm 1 m/S 745 mmHg 84%
18:00 +15°C° 0 mm 1 m/S 746 mmHg 85%
19:00 +15°C° 0 mm 1 m/S 746 mmHg 87%
20:00 +15°C° 0 mm 2 m/S 746 mmHg 87%
21:00 +15°C° 0 mm 2 m/S 746 mmHg 87%
22:00 +14°C° 0 mm 2 m/S 746 mmHg 87%
23:00 +13°C° 0 mm 3 m/S 746 mmHg 87%

2 Oktober, Freitag

Zeit Temperatur Niederschläge Wind Luftdruck Luftfeuchtigkeit
00:00 +13°C° 0 mm 3 m/S 746 mmHg 87%
01:00 +13°C° 0 mm 3 m/S 745 mmHg 86%
02:00 +13°C° 0 mm 3 m/S 745 mmHg 86%
03:00 +13°C° 0 mm 3 m/S 745 mmHg 86%
04:00 +12°C° 0 mm 3 m/S 745 mmHg 86%
05:00 +13°C° 0 mm 3 m/S 745 mmHg 83%
06:00 +13°C° 0 mm 4 m/S 745 mmHg 80%
07:00 +14°C° 0 mm 4 m/S 745 mmHg 77%
08:00 +14°C° 0.7 mm 4 m/S 745 mmHg 78%
09:00 +14°C° 0.7 mm 3 m/S 745 mmHg 79%
10:00 +14°C° 0.7 mm 3 m/S 745 mmHg 79%
11:00 +16°C° 0.2 mm 3 m/S 745 mmHg 76%
12:00 +17°C° 0.2 mm 3 m/S 746 mmHg 74%
13:00 +17°C° 0.2 mm 3 m/S 746 mmHg 71%
14:00 +17°C° 0.6 mm 3 m/S 746 mmHg 76%
15:00 +16°C° 0.6 mm 3 m/S 746 mmHg 82%
16:00 +16°C° 0.6 mm 3 m/S 746 mmHg 87%
17:00 +16°C° 0 mm 3 m/S 746 mmHg 84%
18:00 +15°C° 0 mm 4 m/S 746 mmHg 80%
19:00 +16°C° 0 mm 5 m/S 746 mmHg 77%
20:00 +16°C° 0 mm 5 m/S 746 mmHg 77%
21:00 +15°C° 0 mm 4 m/S 746 mmHg 78%
22:00 +15°C° 0 mm 4 m/S 746 mmHg 78%
23:00 +15°C° 0 mm 4 m/S 746 mmHg 78%
Mehr zeigen